CT1OY Oeiras PT current weather conditions

sailwx.info

Wind from 139

Air temperature 19.4° C
Dewpoint 17.9° C

Last reported at 2014-Oct-31 19:33 UTC.
Time now 2014-Nov-01 09:54 UTC

Location: N 38°44' W 009°17'.
View on Google Maps.

See reports from other nearby stations

  
Tides and Currents Weather Stations Pressure Air Temp Water Temp Dewpoint Dewpoint Depression Visibility Wind Speed Wind Dir Waves Ship Positions
date/time (UTC)wind fromknots sea level pressurealtimeterstation pressurevisibilityair tempwater tempwave heightnotes
2014-Oct-31 19:33 139 19.4
2014-Oct-31 19:23 138 19.4
2014-Oct-31 19:13 139 19.4
2014-Oct-31 19:03 139 19.4
2014-Oct-31 18:43 131 19.4
2014-Oct-31 18:33 131 19.4
2014-Oct-31 18:23 124 20.0
2014-Oct-31 18:13 184 20.0
2014-Oct-31 17:53 111 20.0
2014-Oct-31 17:43 111 20.0
2014-Oct-31 17:33 112 20.0
2014-Oct-31 17:13 121 20.0
2014-Oct-31 16:43 111 20.6
2014-Oct-31 16:33 123 21.1
2014-Oct-31 16:13 131 0 21.1
2014-Oct-31 16:03 129 0 21.1
2014-Oct-31 15:53 144 1 21.7
2014-Oct-31 15:33 128 1 21.7
2014-Oct-31 15:23 131 0 22.2
2014-Oct-31 15:03 104 22.2
2014-Oct-31 14:53 108 22.2
2014-Oct-31 14:33 159 22.2
2014-Oct-31 14:23 098 0 22.2
2014-Oct-31 14:13 141 22.2
2014-Oct-31 14:03 248 22.2
2014-Oct-31 13:53 193 22.2
2014-Oct-31 13:33 131 22.2
2014-Oct-31 13:23 232 2 22.8
2014-Oct-31 13:13 167 1 22.8
2014-Oct-31 13:03 122 22.8
2014-Oct-31 12:53 274 22.8
2014-Oct-31 12:43 136 22.8
2014-Oct-31 12:13 155 1 22.8
2014-Oct-31 12:03 197 22.8
2014-Oct-31 11:43 207 22.8
2014-Oct-31 11:33 150 23.3
2014-Oct-31 11:23 053 23.3
2014-Oct-31 11:13 049 22.2
2014-Oct-31 10:53 032 21.7
2014-Oct-31 10:43 031 21.1
2014-Oct-31 10:33 028 20.0
2014-Oct-31 10:23 098 19.4
2014-Oct-31 10:03 030 0 18.3
2014-Oct-31 09:33 049 17.8
2014-Oct-31 09:23 113 1 17.2
2014-Oct-31 09:03 091 17.2
2014-Oct-31 08:43 349 16.7
2014-Oct-31 08:33 051 16.7
2014-Oct-31 08:23 068 16.7
2014-Oct-31 08:13 030 16.7
2014-Oct-31 07:13 061 15.0
2014-Oct-31 07:03 039 15.0
2014-Oct-31 06:53 063 15.0
2014-Oct-31 06:43 039 15.0
2014-Oct-31 06:23 030 15.0
2014-Oct-31 06:13 074 15.6
2014-Oct-31 05:33 030 15.6
2014-Oct-31 05:23 026 15.6
2014-Oct-31 05:13 039 16.1
2014-Oct-31 05:03 052 16.1
2014-Oct-31 04:33 012 16.1
2014-Oct-31 04:23 059 16.7
2014-Oct-31 04:03 084 16.7
2014-Oct-31 03:53 023 16.7
2014-Oct-31 03:33 077 17.2
2014-Oct-31 03:23 056 17.2
2014-Oct-31 03:13 103 17.2
2014-Oct-31 02:53 200 17.8
2014-Oct-31 02:43 213 17.2
2014-Oct-31 02:33 086 17.2
2014-Oct-31 02:23 086 17.2
2014-Oct-31 02:03 086 17.8
2014-Oct-31 01:43 086 17.8
2014-Oct-31 01:33 086 17.8
2014-Oct-31 01:23 086 18.3
2014-Oct-31 01:03 113 18.9
2014-Oct-31 00:53 113 19.4
2014-Oct-31 00:33 134 19.4
2014-Oct-31 00:23 146 18.9
2014-Oct-30 23:23 215 17.8
2014-Oct-30 23:13 214 17.8
2014-Oct-30 22:33 215 17.8
2014-Oct-30 22:13 215 17.8
2014-Oct-30 22:03 215 17.8
2014-Oct-30 21:53 215 18.3
2014-Oct-30 21:43 215 18.3
2014-Oct-30 21:23 215 18.9
2014-Oct-30 21:13 215 18.9
2014-Oct-30 21:03 215 18.9
2014-Oct-30 20:53 214 18.9
2014-Oct-30 20:23 215 20.0
2014-Oct-30 19:53 215 20.6
2014-Oct-30 19:43 216 20.6
2014-Oct-30 19:33 226 20.6
2014-Oct-30 19:03 194 21.1
2014-Oct-30 18:43 129 21.7
2014-Oct-30 18:33 236 22.2
2014-Oct-30 18:23 152 22.8
2014-Oct-30 18:03 108 23.3
2014-Oct-30 17:53 096 23.3
2014-Oct-30 17:43 126 23.3
2014-Oct-30 17:33 091 23.9
2014-Oct-30 17:23 105 24.4
2014-Oct-30 17:13 070 25.6
2014-Oct-30 17:03 100 26.1
2014-Oct-30 16:53 100 26.1
2014-Oct-30 16:43 072 26.7
2014-Oct-30 16:23 075 26.7
2014-Oct-30 16:13 070 27.2
2014-Oct-30 15:53 094 26.7
2014-Oct-30 15:03 127 24.4
2014-Oct-30 14:03 197 2 24.4
2014-Oct-30 13:53 198 23.9
2014-Oct-30 13:23 128 1 24.4
2014-Oct-30 13:13 129 24.4
2014-Oct-30 12:53 110 24.4
2014-Oct-30 12:33 118 1 23.9
2014-Oct-30 12:23 358 23.3
2014-Oct-30 12:13 070 0 23.3
2014-Oct-30 11:43 288 0 22.8
2014-Oct-30 11:33 330 22.8
2014-Oct-30 11:23 051 0 22.2
2014-Oct-30 11:03 073 1 22.2
2014-Oct-30 10:23 068 0 21.1
2014-Oct-30 10:13 337 20.0
2014-Oct-30 10:03 038 20.0
2014-Oct-30 09:43 053 0 20.0
2014-Oct-30 09:13 026 18.3
2014-Oct-30 09:03 032 18.3